Date,TemperatureHighF,TemperatureAvgF,TemperatureLowF,DewpointHighF,DewpointAvgF,DewpointLowF,HumidityHigh,HumidityAvg,HumidityLow,PressureMaxIn,PressureMinIn,WindSpeedMaxMPH,WindSpeedAvgMPH,GustSpeedMaxMPH,PrecipitationSumIn
2013-3-1,49.6,40.6,34.4,38.0,33.9,28.0,100,78,53,29.66,29.49,22,10,23,0.00
2013-3-2,42.4,37.1,33.0,32.0,29.3,26.8,83,73,60,29.68,29.60,27,11,27,0.00
2013-3-3,38.7,34.7,31.2,29.5,27.6,25.9,87,75,66,29.62,29.55,27,11,27,0.00
2013-3-4,37.9,31.3,29.2,27.5,24.6,22.9,85,76,62,29.65,29.60,31,17,33,0.00
2013-3-5,45.6,35.0,30.3,31.3,26.3,23.8,78,71,56,29.90,29.74,31,17,33,0.00
2013-3-6,40.9,37.7,32.5,37.5,35.1,30.4,95,90,83,29.99,29.80,54,27,56,0.01
2013-3-7,37.7,34.4,31.2,35.2,32.4,29.6,95,92,86,29.89,29.75,61,36,61,0.02
2013-3-8,40.4,33.7,30.5,33.8,30.1,27.4,94,87,61,30.02,29.83,52,28,52,0.02
2013-3-9,45.7,38.4,33.7,35.0,30.0,24.8,92,72,60,30.28,30.01,45,21,45,0.00
2013-3-10,42.3,36.7,31.9,35.0,32.9,30.1,94,86,73,30.35,30.28,24,10,25,0.00
2013-3-11,44.7,38.8,30.9,42.4,37.0,29.2,100,93,89,30.31,30.12,18,8,18,0.00
2013-3-12,46.1,44.3,42.3,45.1,43.4,41.2,100,97,96,30.13,29.93,27,14,27,0.00
2013-3-13,48.3,42.5,36.9,46.0,35.8,31.9,98,78,56,29.78,29.70,21,13,31,0.03
2013-3-14,39.5,33.5,28.2,34.2,23.0,14.4,92,66,44,29.85,29.72,27,15,44,0.01
2013-3-15,40.1,33.5,27.0,33.0,21.8,11.8,82,62,49,29.88,29.67,27,18,40,0.00
2013-3-16,39.6,34.4,31.8,31.2,24.5,16.1,86,68,38,29.85,29.69,20,10,30,0.00
2013-3-17,41.6,34.5,29.0,28.8,16.9,10.0,82,50,32,30.25,29.84,30,13,30,0.00
2013-3-18,34.8,31.1,24.7,30.4,19.2,8.7,84,61,47,30.40,30.11,29,13,30,0.00
2013-3-19,40.9,37.4,33.3,40.1,36.0,29.3,97,95,83,30.11,29.51,37,19,39,0.80
2013-3-20,40.9,36.0,31.2,33.4,27.2,22.3,93,71,53,29.80,29.67,26,16,39,0.00
2013-3-21,39.5,34.2,29.6,34.2,28.5,24.5,96,80,63,29.80,29.56,19,11,28,0.08
2013-3-22,39.9,34.5,26.7,29.1,24.6,18.6,96,67,56,29.76,29.60,21,16,38,0.00
2013-3-23,46.9,39.2,33.6,30.6,25.4,21.7,74,58,38,29.81,29.66,23,17,37,0.00
2013-3-24,45.6,37.6,32.3,33.1,27.6,21.4,81,67,51,29.84,29.68,21,11,33,0.00
2013-3-25,41.5,37.8,31.7,37.7,33.3,28.6,94,84,73,29.73,29.39,41,18,41,0.01
2013-3-26,36.8,35.7,34.5,34.6,32.1,30.0,93,87,81,29.62,29.43,32,14,33,0.00
2013-3-27,49.6,41.7,32.8,34.2,30.3,25.9,80,65,50,29.83,29.75,21,11,32,0.00
2013-3-28,48.2,41.2,36.4,37.7,34.1,30.8,87,76,62,30.01,29.82,17,9,24,0.00
2013-3-29,51.7,45.5,37.9,38.8,36.8,33.8,87,72,57,30.04,29.97,29,12,30,0.00
2013-3-30,50.4,44.6,40.6,39.0,35.7,32.3,84,71,53,30.09,30.00,29,13,29,0.00
2013-3-31,41.2,39.8,38.4,37.5,35.5,34.4,92,84,80,30.10,30.08,13,7,13,0.00